Home > Weather > Angels Camp > Past weeks

Flag for USA Weather for the Past 2 Weeks in Angels Camp, California, USA

Now
63 °F

Clear.


Feels Like: 63 °F
Forecast: 44 / 77 °F
Wind: 10 mph from Northwest

Location: Modesto City-County-Sham Field

Current Time: Apr 29, 2016 at 10:43:29 PM

Latest Report: Apr 29, 2016 at 9:53 PM


Visibility: 10 mi

Pressure: 29.86 "Hg

Humidity: 48%

Dew Point: 43 °F

Location of Angels CampLocation

Historic Weather in Angels Camp — Graph

°F

Angels Camp Temperature Yesterday

Maximum temperature yesterday: 81 °F (at 3:53 PM)
Minimum temperature yesterday: 54 °F (at 4:53 AM)
Average temperature yesterday: 66 °F

High & Low Weather Summary for the Past Weeks

 TemperatureHumidityPressure
High88 °F (Apr 18, 3:53 PM)89% (Apr 17, 6:53 AM)30.19 "Hg (Apr 17, 6:53 AM)
Low48 °F (Apr 16, 5:53 AM)13% (Apr 20, 3:53 PM)29.79 "Hg (Apr 28, 3:53 AM)
Average65 °F50%29.97 "Hg
* Reported Apr 14 8:53 PM — Apr 29 8:53 PM, Angels Camp, Weather by CustomWeather, © 2016

Note: Actual official high and low records may vary slightly from our data, if they occured in-between our weather recording intervals... More about our weather records

Advertising

Angels Camp Weather History for the Previous 24 Hours

Scroll right to see more
 ConditionsComfort  
Time TempWeatherWind HumidityBarometerVisibility
8:53 PM
Fri, Apr 29
66 °FClear.8 mph45%29.85 "Hg10 mi
7:53 PM69 °FSunny.15 mph38%29.84 "Hg10 mi
6:53 PM72 °FSunny.15 mph34%29.85 "Hg10 mi
5:53 PM76 °FSunny.17 mph29%29.86 "Hg10 mi
4:53 PM79 °FSunny.16 mph27%29.87 "Hg10 mi
3:53 PM80 °FSunny.5 mph29%29.89 "Hg10 mi
2:53 PM80 °FSunny.10 mph28%29.92 "Hg10 mi
1:53 PM77 °FSunny.12 mph30%29.94 "Hg10 mi
12:53 PM75 °FSunny.N/A36%29.96 "Hg10 mi
11:53 AM73 °FSunny.8 mph37%29.98 "Hg10 mi
10:53 AM70 °FSunny.No wind46%30.00 "Hg10 mi
9:53 AM65 °FSunny.No wind54%30.00 "Hg10 mi
8:53 AM59 °FSunny.No wind69%30.00 "Hg10 mi
7:53 AM56 °FSunny.No wind77%29.99 "Hg10 mi
6:53 AM53 °FClear.N/A83%29.98 "Hg10 mi
5:53 AM51 °FClear.5 mph83%29.96 "Hg10 mi
4:53 AM52 °FClear.No wind80%29.96 "Hg10 mi
3:53 AM52 °FClear.5 mph80%29.95 "Hg10 mi
2:53 AM54 °FClear.No wind74%29.93 "Hg10 mi
1:53 AM58 °FClear.3 mph62%29.93 "Hg10 mi
12:53 AM59 °FClear.3 mph62%29.92 "Hg10 mi
11:53 PM
Thu, Apr 28
58 °FClear.5 mph62%29.91 "Hg10 mi
10:53 PM65 °FClear.7 mph40%29.91 "Hg10 mi
Weather by CustomWeather, © 2016

See weather overviewHow to use our weather pages